#timestamp,LO_Frequency,Hit,StdDev 
1507892415.7,286047002.2,N
1507892435.5,286046999.7,N
1507892455.4,286047002.2,N
1507892475.2,286047001.9,N
1507892495.0,286047002.6,N
1507892495.9,286047002.6,N
1507892515.8,286047003.2,N
1507892535.6,286047004.3,N
1507892555.4,286047000.4,N
1507892575.2,286046998.3,N
1507892595.1,286047006.7,Y
1507892596.0,286047006.7,P
1507892615.8,286047007.0,N
1507892635.7,286047003.7,N
1507892655.5,286047004.0,N
1507892675.3,286047000.7,N
1507892695.1,286046998.7,N
1507892715.9,286046999.3,N
1507892735.7,286046997.2,N
1507892755.5,286047004.4,N
1507892775.4,286047004.2,N
1507892795.2,286047003.5,N
1507892815.0,286046999.8,N
1507892815.9,286046999.8,N
1507892835.8,286047002.7,N
1507892855.6,286047001.7,N
1507892875.4,286047000.0,N
1507892895.3,286047000.2,N
1507892915.1,286046998.7,N
1507892916.0,286046998.7,N
1507892935.8,286046997.7,N
1507892955.7,286046997.5,N
1507892975.5,286046999.6,N
1507892995.3,286046997.1,N
1507893015.2,286046996.6,N
1507893035.9,286046997.4,N
1507893055.7,286046998.0,N
1507893075.6,286046996.9,N
1507893095.4,286047002.7,N
1507893115.2,286046998.3,N
1507893135.0,286046998.3,N
1507893135.9,286046998.3,N
1507893155.8,286047000.4,N
1507893175.6,286046999.2,N
1507893195.4,286046997.9,N
1507893215.3,286046995.1,N
1507893235.1,286046994.5,N
1507893255.8,286046997.8,N
1507893275.7,286046997.4,N
1507893295.5,286047000.4,N
1507893315.3,286047002.2,N
1507893335.2,286047005.2,N
1507893355.9,286047004.6,N
1507893375.7,286047006.7,N
1507893395.6,286047009.1,Y
1507893415.4,286047012.2,P
1507893435.2,286047008.1,N
1507893455.1,286047007.9,N
1507893456.0,286047007.9,N
1507893475.8,286047010.1,N
1507893495.6,286047011.7,N
1507893515.4,286047008.5,N
1507893535.3,286047010.7,N
1507893555.1,286047010.0,N
1507893575.8,286047010.2,N
1507893595.7,286047008.2,N
1507893615.5,286047012.2,Y
1507893635.3,286046999.8,P
1507893655.2,286047001.7,N
1507893675.9,286047003.2,N
1507893695.7,286047000.9,N
1507893715.6,286046997.0,N
1507893735.4,286046999.7,N
1507893755.2,286047000.3,N
1507893775.1,286046998.6,N
1507893776.0,286046998.6,N
1507893795.8,286047001.1,N
1507893815.6,286047003.0,N
1507893835.5,286047002.9,N
1507893855.3,286047004.8,N
1507893875.1,286047007.1,N
1507893895.8,286047003.9,N
1507893915.7,286047000.8,N
1507893935.5,286047000.7,N
1507893955.3,286046999.4,N
1507893975.2,286047001.1,N
1507893995.9,286046997.5,N
1507894015.7,286046997.7,N
1507894035.6,286047000.9,N
1507894055.4,286047000.3,N
1507894075.2,286047002.5,N
1507894095.1,286047003.2,N
1507894096.0,286047003.2,N
1507894115.8,286047003.5,N
1507894135.6,286047002.4,N
1507894155.5,286047006.0,N
1507894175.3,286047001.7,N
1507894195.1,286047000.5,N
1507894215.8,286046998.3,N
1507894235.7,286046996.9,N
1507894255.5,286046997.3,N
1507894275.3,286047000.9,N
1507894295.2,286046996.8,N
1507894315.9,286046997.3,N
1507894335.7,286047002.7,N
1507894355.6,286047004.3,N
1507894375.4,286047000.5,N
1507894395.2,286047003.7,N
1507894415.1,286047002.9,N
1507894416.0,286047002.9,N
1507894435.8,286047002.7,N
1507894455.6,286047002.4,N
1507894475.5,286047001.8,N
1507894495.3,286047003.9,N
1507894515.1,286047005.2,N
1507894535.9,286047004.9,N
1507894555.7,286047004.1,N
1507894575.5,286047000.6,N
1507894595.3,286047003.4,N
1507894615.2,286047005.7,N
1507894635.0,286047007.6,N
1507894635.9,286047007.6,N
1507894655.7,286047003.4,N
1507894675.6,286047002.2,N
1507894695.4,286047000.1,N
1507894715.2,286046999.9,N
1507894735.1,286047001.7,N
1507894736.0,286047001.7,N
1507894755.8,286047006.7,N
1507894775.6,286047004.2,N
1507894795.5,286047010.7,Y
1507894815.3,286047003.4,P
1507894835.1,286047004.4,P
1507894855.9,286047005.9,P
1507894875.7,286047002.8,N
1507894895.5,286047002.2,N
1507894915.4,286047001.6,N
1507894935.2,286047000.3,N
1507894955.0,286046999.4,N
1507894955.9,286046999.4,N
1507894975.8,286047000.0,N
1507894995.6,286046998.7,N
1507895015.4,286046996.8,N
1507895035.2,286047000.8,N
1507895055.1,286047001.6,N
1507895056.0,286047001.6,N
1507895075.8,286047005.3,N
1507895095.6,286046999.9,N
1507895115.5,286047000.4,N
1507895135.3,286047000.4,N
1507895155.1,286047000.0,N
1507895175.9,286047001.8,N
1507895195.7,286047005.3,N
1507895215.5,286047005.4,N
1507895235.4,286047008.4,Y
1507895255.2,286047005.3,P
1507895275.0,286047004.9,N
1507895275.9,286047004.9,N
1507895295.8,286047005.8,Y
1507895315.6,286047000.4,P
1507895335.4,286047001.0,N
1507895355.3,286047001.2,N
1507895375.1,286046996.8,N
1507895395.8,286046995.6,N
1507895415.7,286046995.7,N
1507895435.5,286046996.3,N
1507895455.3,286046994.6,N
1507895475.2,286046996.3,N
1507895495.9,286046998.2,N
1507895515.7,286046997.6,N
1507895535.5,286046996.6,N
1507895555.4,286046997.4,N
1507895575.2,286046997.0,N
1507895595.0,286046996.4,N
1507895595.9,286046996.4,N
1507895615.8,286046997.1,N
1507895635.6,286046995.8,N
1507895655.4,286046995.0,N
1507895675.3,286046993.8,N
1507895695.1,286046990.4,Y
1507895715.8,286046988.5,P
1507895735.7,286046990.9,N
1507895755.5,286046993.2,N
1507895775.3,286046990.7,N
1507895795.2,286046988.9,Y
1507895815.9,286047000.8,P
1507895835.7,286046995.4,N
1507895855.6,286046996.5,N
1507895875.4,286046996.1,N
1507895895.2,286046995.7,N
1507895915.1,286046997.0,N
1507895916.0,286046997.0,N
1507895935.8,286046996.7,N
1507895955.6,286046998.3,N
1507895975.5,286046996.5,N
1507895995.3,286046997.1,N
